Location: Newark
(48.6503°N, 29.5086°E)
Time: 13:37:35
(UTC+00:00)

N. Korean satellite - Visible Passes

Search period start: 23 September 2019 00:00
Search period end: 03 October 2019 00:00
Orbit: 455 x 509 km, 97.2° (Epoch: 22 September)

Date Brightness Start Highest point End Pass type
(mag) Time Alt. Az. Time Alt. Az. Time Alt. Az.
25 Sep 10.3 02:53:59 10° ENE 02:55:00 11° E 02:55:59 10° ESE visible
28 Sep 9.8 03:10:27 10° NE 03:12:50 17° E 03:15:13 10° SE visible
02 Oct 10.0 03:03:10 10° NE 03:05:12 15° E 03:07:14 10° SE visible
